Multibeam Report for NF-11-06-FKNMS


Ship Name: Nancy Foster
Chief Scientist: Donahue, Scott
NOS/ONMS/FKNMS
Source Organization: National Oceanic and Atmospheric Administration (NOAA)
Start Date: 2011-07-25
End Date: 2011-08-05


View ISO Metadata

Visit the full NCEI Bathymetry Viewer


Multibeam Bathymetry

Cruise Details

Project: Tortugas Ecological Reserve Multibeam Surveys
Instrument: Simrad EM1002

Data Quality

Number of Files: 166
Number of Records: 1234875
BATHYMETRY DATA Quantity Percentage
Number of Beams 137071125 100%
Number of Good Beams 137057549 99.99%
Number of Zero Beams 13576 0.01%
Number of Flagged Beams 0 0%
AMPLITUDE DATA Quantity Percentage
Number of Beams 137071125 100%
Number of Good Beams 137057549 99.99%
Number of Zero Beams 13576 0.01%
Number of Flagged Beams 0 0%
SIDESCAN DATA Quantity Percentage
Number of Pixels 1264512000 100%
Number of Good Pixels 814952212 64.45%
Number of Zero Pixels 0 0%
Number of Flagged Pixels 449559788 35.55%

Navigation Totals

Total Time: 61.4614 hours
Total Track Length: 827.1434 km
Average Speed: 13.458 km/hr (7.2667 knots)

Cruise Bounds

Northern Extent: 24.6415
Southern Extent: 24.4622
Western Extent: -83.1553
Eastern Extent: -83.0239

Limits

Minimum Sonar Depth 2.95 Maximum Sonar Depth 4.29
Minimum Altitude 8.17 Maximum Altitude 70.83
Minimum Depth 10.97 Maximum Depth 768.64
Minimum Amplitude 0 Maximum Amplitude 60.5
Minimum Sidescan 0 Maximum Sidescan 20.5

File Information

Full Resolution Bathymetry as collected (raw): 163

Files File Size Description
0001_20110731_085234_raw.all.mb56.gz 42.52MB Simrad multibeam vendor format
0002_20110731_094638_raw.all.mb56.gz 40.81MB Simrad multibeam vendor format
0007_20110731_105744_raw.all.mb56.gz 40.44MB Simrad multibeam vendor format
0008_20110731_115256_raw.all.mb56.gz 40.20MB Simrad multibeam vendor format
0009_20110731_124717_raw.all.mb56.gz 40.54MB Simrad multibeam vendor format
0010_20110731_134306_raw.all.mb56.gz 41.77MB Simrad multibeam vendor format
0011_20110731_150119_raw.all.mb56.gz 40.59MB Simrad multibeam vendor format
0012_20110731_154916_raw.all.mb56.gz 1.54MB Simrad multibeam vendor format
0013_20110731_155540_raw.all.mb56.gz 42.47MB Simrad multibeam vendor format
0014_20110731_164901_raw.all.mb56.gz 9.86MB Simrad multibeam vendor format
0015_20110731_170118_raw.all.mb56.gz 32.76MB Simrad multibeam vendor format
0016_20110731_174217_raw.all.mb56.gz 42.92MB Simrad multibeam vendor format
0017_20110731_183522_raw.all.mb56.gz 25.46MB Simrad multibeam vendor format
0018_20110731_190542_raw.all.mb56.gz 17.09MB Simrad multibeam vendor format
0019_20110731_192851_raw.all.mb56.gz 26.23MB Simrad multibeam vendor format
0020_20110731_195851_raw.all.mb56.gz 17.56MB Simrad multibeam vendor format
0021_20110731_202705_raw.all.mb56.gz 2.02MB Simrad multibeam vendor format
0022_20110731_204156_raw.all.mb56.gz 1.13MB Simrad multibeam vendor format
0023_20110731_205006_raw.all.mb56.gz 0.55MB Simrad multibeam vendor format
0024_20110731_210402_raw.all.mb56.gz 23.64MB Simrad multibeam vendor format
0025_20110731_215417_raw.all.mb56.gz 25.17MB Simrad multibeam vendor format
0026_20110731_222712_raw.all.mb56.gz 24.29MB Simrad multibeam vendor format
0027_20110731_225926_raw.all.mb56.gz 24.92MB Simrad multibeam vendor format
0028_20110731_233233_raw.all.mb56.gz 24.15MB Simrad multibeam vendor format
0029_20110801_000429_raw.all.mb56.gz 25.38MB Simrad multibeam vendor format
0030_20110801_003557_raw.all.mb56.gz 23.45MB Simrad multibeam vendor format
0031_20110801_010711_raw.all.mb56.gz 23.20MB Simrad multibeam vendor format
0032_20110801_013810_raw.all.mb56.gz 183.8KB Simrad multibeam vendor format
0033_20110801_013824_raw.all.mb56.gz 21.18MB Simrad multibeam vendor format
0034_20110801_020531_raw.all.mb56.gz 22.80MB Simrad multibeam vendor format
0035_20110801_023545_raw.all.mb56.gz 20.00MB Simrad multibeam vendor format
0036_20110801_030142_raw.all.mb56.gz 21.53MB Simrad multibeam vendor format
0037_20110801_033041_raw.all.mb56.gz 19.30MB Simrad multibeam vendor format
0038_20110801_041329_raw.all.mb56.gz 18.81MB Simrad multibeam vendor format
0039_20110801_043946_raw.all.mb56.gz 16.16MB Simrad multibeam vendor format
0040_20110801_050210_raw.all.mb56.gz 19.40MB Simrad multibeam vendor format
0041_20110801_052718_raw.all.mb56.gz 18.91MB Simrad multibeam vendor format
0042_20110801_055136_raw.all.mb56.gz 15.91MB Simrad multibeam vendor format
0043_20110801_061444_raw.all.mb56.gz 16.03MB Simrad multibeam vendor format
0044_20110801_063605_raw.all.mb56.gz 16.31MB Simrad multibeam vendor format
0045_20110801_065826_raw.all.mb56.gz 17.55MB Simrad multibeam vendor format
0046_20110801_072128_raw.all.mb56.gz 17.33MB Simrad multibeam vendor format
0047_20110801_074459_raw.all.mb56.gz 19.36MB Simrad multibeam vendor format
0048_20110801_080930_raw.all.mb56.gz 17.28MB Simrad multibeam vendor format
0049_20110801_083214_raw.all.mb56.gz 20.16MB Simrad multibeam vendor format
0050_20110801_085729_raw.all.mb56.gz 19.07MB Simrad multibeam vendor format
0051_20110801_092306_raw.all.mb56.gz 20.31MB Simrad multibeam vendor format
0052_20110801_102815_raw.all.mb56.gz 20.89MB Simrad multibeam vendor format
0053_20110801_105555_raw.all.mb56.gz 20.38MB Simrad multibeam vendor format
0054_20110801_112131_raw.all.mb56.gz 29.21MB Simrad multibeam vendor format
0055_20110801_115132_raw.all.mb56.gz 9.59MB Simrad multibeam vendor format
0056_20110801_120629_raw.all.mb56.gz 29.10MB Simrad multibeam vendor format
0057_20110801_123629_raw.all.mb56.gz 8.80MB Simrad multibeam vendor format
0058_20110801_124959_raw.all.mb56.gz 29.07MB Simrad multibeam vendor format
0059_20110801_131959_raw.all.mb56.gz 9.53MB Simrad multibeam vendor format
0060_20110801_133450_raw.all.mb56.gz 29.18MB Simrad multibeam vendor format
0061_20110801_140450_raw.all.mb56.gz 8.72MB Simrad multibeam vendor format
0062_20110801_141801_raw.all.mb56.gz 29.38MB Simrad multibeam vendor format
0063_20110801_144801_raw.all.mb56.gz 9.80MB Simrad multibeam vendor format
0064_20110801_150142_raw.all.mb56.gz 29.99MB Simrad multibeam vendor format
0065_20110801_153142_raw.all.mb56.gz 9.06MB Simrad multibeam vendor format
0066_20110801_160039_raw.all.mb56.gz 29.06MB Simrad multibeam vendor format
0067_20110801_163039_raw.all.mb56.gz 8.67MB Simrad multibeam vendor format
0068_20110801_164354_raw.all.mb56.gz 29.20MB Simrad multibeam vendor format
0069_20110801_171354_raw.all.mb56.gz 9.18MB Simrad multibeam vendor format
0070_20110801_172710_raw.all.mb56.gz 29.16MB Simrad multibeam vendor format
0071_20110801_175710_raw.all.mb56.gz 8.67MB Simrad multibeam vendor format
0072_20110801_181015_raw.all.mb56.gz 29.16MB Simrad multibeam vendor format
0073_20110801_184015_raw.all.mb56.gz 10.01MB Simrad multibeam vendor format
0074_20110801_185347_raw.all.mb56.gz 29.04MB Simrad multibeam vendor format
0075_20110801_192348_raw.all.mb56.gz 8.95MB Simrad multibeam vendor format
0076_20110801_193824_raw.all.mb56.gz 29.01MB Simrad multibeam vendor format
0077_20110801_200824_raw.all.mb56.gz 12.20MB Simrad multibeam vendor format
0078_20110801_202534_raw.all.mb56.gz 28.45MB Simrad multibeam vendor format
0079_20110801_205534_raw.all.mb56.gz 11.01MB Simrad multibeam vendor format
0080_20110801_212840_raw.all.mb56.gz 28.77MB Simrad multibeam vendor format
0081_20110801_215840_raw.all.mb56.gz 13.90MB Simrad multibeam vendor format
0082_20110801_221729_raw.all.mb56.gz 28.66MB Simrad multibeam vendor format
0083_20110801_224729_raw.all.mb56.gz 11.89MB Simrad multibeam vendor format
0084_20110801_230525_raw.all.mb56.gz 28.58MB Simrad multibeam vendor format
0085_20110801_233526_raw.all.mb56.gz 12.18MB Simrad multibeam vendor format
0086_20110801_235153_raw.all.mb56.gz 8.69MB Simrad multibeam vendor format
0087_20110802_000056_raw.all.mb56.gz 28.23MB Simrad multibeam vendor format
0088_20110802_003057_raw.all.mb56.gz 2.54MB Simrad multibeam vendor format
0089_20110802_003721_raw.all.mb56.gz 28.46MB Simrad multibeam vendor format
0090_20110802_010722_raw.all.mb56.gz 11.05MB Simrad multibeam vendor format
0091_20110802_012224_raw.all.mb56.gz 28.43MB Simrad multibeam vendor format
0092_20110802_015225_raw.all.mb56.gz 10.22MB Simrad multibeam vendor format
0093_20110802_020720_raw.all.mb56.gz 28.52MB Simrad multibeam vendor format
0094_20110802_023720_raw.all.mb56.gz 11.26MB Simrad multibeam vendor format
0095_20110802_025211_raw.all.mb56.gz 28.41MB Simrad multibeam vendor format
0096_20110802_032211_raw.all.mb56.gz 10.62MB Simrad multibeam vendor format
0097_20110802_045735_raw.all.mb56.gz 40.34MB Simrad multibeam vendor format
0098_20110802_053005_raw.all.mb56.gz 39.18MB Simrad multibeam vendor format
0099_20110802_060218_raw.all.mb56.gz 41.86MB Simrad multibeam vendor format
0101_20110802_064458_raw.all.mb56.gz 40.37MB Simrad multibeam vendor format
0102_20110802_071903_raw.all.mb56.gz 38.57MB Simrad multibeam vendor format
0103_20110802_075439_raw.all.mb56.gz 39.07MB Simrad multibeam vendor format
0104_20110802_082439_raw.all.mb56.gz 1.33MB Simrad multibeam vendor format
0105_20110802_082942_raw.all.mb56.gz 41.52MB Simrad multibeam vendor format
0106_20110802_085942_raw.all.mb56.gz 508.6KB Simrad multibeam vendor format
0107_20110802_090437_raw.all.mb56.gz 42.23MB Simrad multibeam vendor format
0108_20110802_093437_raw.all.mb56.gz 2.00MB Simrad multibeam vendor format
0109_20110802_093935_raw.all.mb56.gz 43.03MB Simrad multibeam vendor format
0110_20110802_100935_raw.all.mb56.gz 223.3KB Simrad multibeam vendor format
0111_20110802_101647_raw.all.mb56.gz 40.89MB Simrad multibeam vendor format
0112_20110802_111744_raw.all.mb56.gz 42.57MB Simrad multibeam vendor format
0113_20110802_114744_raw.all.mb56.gz 1.70MB Simrad multibeam vendor format
0114_20110802_115357_raw.all.mb56.gz 39.02MB Simrad multibeam vendor format
0115_20110802_122639_raw.all.mb56.gz 40.47MB Simrad multibeam vendor format
0116_20110802_125852_raw.all.mb56.gz 39.74MB Simrad multibeam vendor format
0117_20110802_133149_raw.all.mb56.gz 41.25MB Simrad multibeam vendor format
0118_20110802_140150_raw.all.mb56.gz 54.7KB Simrad multibeam vendor format
0119_20110802_140521_raw.all.mb56.gz 40.09MB Simrad multibeam vendor format
0120_20110802_143521_raw.all.mb56.gz 177.8KB Simrad multibeam vendor format
0121_20110802_143759_raw.all.mb56.gz 18.9KB Simrad multibeam vendor format
0122_20110802_143929_raw.all.mb56.gz 38.47MB Simrad multibeam vendor format
0123_20110802_151219_raw.all.mb56.gz 36.82MB Simrad multibeam vendor format
0124_20110802_154458_raw.all.mb56.gz 42.18MB Simrad multibeam vendor format
0125_20110802_172831_raw.all.mb56.gz 39.84MB Simrad multibeam vendor format
0126_20110802_180049_raw.all.mb56.gz 37.66MB Simrad multibeam vendor format
0127_20110802_183105_raw.all.mb56.gz 37.98MB Simrad multibeam vendor format
0128_20110802_190210_raw.all.mb56.gz 37.92MB Simrad multibeam vendor format
0129_20110802_193142_raw.all.mb56.gz 38.66MB Simrad multibeam vendor format
0130_20110802_200421_raw.all.mb56.gz 39.05MB Simrad multibeam vendor format
0131_20110802_203921_raw.all.mb56.gz 36.91MB Simrad multibeam vendor format
0132_20110802_211037_raw.all.mb56.gz 41.48MB Simrad multibeam vendor format
0133_20110802_214417_raw.all.mb56.gz 38.20MB Simrad multibeam vendor format
0134_20110802_221601_raw.all.mb56.gz 41.04MB Simrad multibeam vendor format
0135_20110802_224919_raw.all.mb56.gz 37.97MB Simrad multibeam vendor format
0136_20110802_232121_raw.all.mb56.gz 40.18MB Simrad multibeam vendor format
0137_20110802_235358_raw.all.mb56.gz 8.61MB Simrad multibeam vendor format
0138_20110803_000000_raw.all.mb56.gz 27.83MB Simrad multibeam vendor format
0139_20110803_003631_raw.all.mb56.gz 35.08MB Simrad multibeam vendor format
0140_20110803_010431_raw.all.mb56.gz 36.21MB Simrad multibeam vendor format
0141_20110803_013440_raw.all.mb56.gz 34.18MB Simrad multibeam vendor format
0142_20110803_020220_raw.all.mb56.gz 36.15MB Simrad multibeam vendor format
0143_20110803_023309_raw.all.mb56.gz 33.68MB Simrad multibeam vendor format
0144_20110803_030016_raw.all.mb56.gz 35.57MB Simrad multibeam vendor format
0145_20110803_033103_raw.all.mb56.gz 33.44MB Simrad multibeam vendor format
0146_20110803_035837_raw.all.mb56.gz 35.44MB Simrad multibeam vendor format
0147_20110803_042828_raw.all.mb56.gz 34.54MB Simrad multibeam vendor format
0148_20110803_045711_raw.all.mb56.gz 35.42MB Simrad multibeam vendor format
0149_20110803_052639_raw.all.mb56.gz 34.07MB Simrad multibeam vendor format
0150_20110803_055120_raw.all.mb56.gz 6.50MB Simrad multibeam vendor format
0151_20110803_055642_raw.all.mb56.gz 29.10MB Simrad multibeam vendor format
0152_20110803_064437_raw.all.mb56.gz 30.70MB Simrad multibeam vendor format
0153_20110803_071322_raw.all.mb56.gz 28.16MB Simrad multibeam vendor format
0154_20110803_073753_raw.all.mb56.gz 32.60MB Simrad multibeam vendor format
0155_20110803_080607_raw.all.mb56.gz 32.59MB Simrad multibeam vendor format
0156_20110803_083333_raw.all.mb56.gz 33.77MB Simrad multibeam vendor format
0157_20110803_090405_raw.all.mb56.gz 32.58MB Simrad multibeam vendor format
0158_20110803_093141_raw.all.mb56.gz 32.37MB Simrad multibeam vendor format
0159_20110803_100039_raw.all.mb56.gz 30.28MB Simrad multibeam vendor format
0160_20110803_102731_raw.all.mb56.gz 31.79MB Simrad multibeam vendor format
0161_20110803_105640_raw.all.mb56.gz 28.18MB Simrad multibeam vendor format
0162_20110803_112243_raw.all.mb56.gz 29.69MB Simrad multibeam vendor format
0163_20110803_114958_raw.all.mb56.gz 26.91MB Simrad multibeam vendor format
0164_20110803_121518_raw.all.mb56.gz 26.02MB Simrad multibeam vendor format
0165_20110803_123838_raw.all.mb56.gz 25.65MB Simrad multibeam vendor format
0166_20110803_130354_raw.all.mb56.gz 25.89MB Simrad multibeam vendor format
0167_20110803_132800_raw.all.mb56.gz 25.42MB Simrad multibeam vendor format
0168_20110803_135253_raw.all.mb56.gz 25.31MB Simrad multibeam vendor format

Metadata Files: 1

Files File Size Description
NF-11-06-FKNMS_Multibeam.xml NGDC created ISO metadata

Ancillary Files: 1

Files File Size Description
svp.tar.gz 17.9KB Sound Speed Profiles (SSP or SVP)

Water Column Sonar Data

Water Column Sonar Data Available: WCSD Map Viewer